FENGYUN 1C DEB, 31266

Orbit data source: Space-Track

FENGYUN 1C DEB, 31266 is space debris in SSO originally from a launch on Mon, 10 May 1999 UTC launched from the Taiyaun Space Center, China (TSC). Fengyun 1C debris stems from the Chinese weather satellite Fengyun-1C, which was intentionally destroyed by a Chinese anti-satellite missile in 2007. This event dramatically increased the amount of space debris, with thousands of trackable fragments posing hazards to satellites and human spaceflight. The Fengyun 1C debris cloud has become a focal point in discussions about space sustainability and the need for international regulations to prevent the creation of new debris.

Loading next visibility...
Identifier
31266, 1999-025BMY
Orbit
SSO
Country
Flag of CNCN / PRC
Related business
Manufacturer
Unknown
Mission
Spacecraft
Bus & Motor
Unknown
Mass
Unknown
Launch date (UTC)
1999-05-10 (27 years ago)
Launch vehicle
Unknown
Launch site
Taiyaun Space Center, China (TSC)
Object type
Payload
Rocket body
Debris
Shape & HBR
Unknown shape, 0.1 m
Radar Cross Section
Medium (>0.1 m² and <1 m²)

Expand to show TLE details & history
Last TLE update: 2 days ago

TLE from 2 days ago
0 FENGYUN 1C DEB
1 31266U 99025BMY 26262.83281457  .00000231  00000-0  11478-3 0  9999
2 31266  99.2766 265.3884 0129330 203.9519 280.0513 14.22664964 11793
Epoch: 2026-09-19T19:59Z
TLE epoch observation values (Epoch: 2026-09-19T19:59:15.178Z)
Latitude
56.40435°
Longitude
160.99635°
Altitude
810.652 km
Speed
7.461 km/s
True Right ascension
06h 38m 10s
True Declination
56° 14' 49"
Sunlit
Object was in daylight at epoch
Visualization orbit readout
Latitude
Unknown
Longitude
Unknown
Altitude
Unknown
Speed
Unknown
Apparent Right ascension
Unknown
Apparent Declination
Unknown
Sunlit
N/A
Visualization observer readout
Local Sidereal Time
03:13:54
Azimuth
Unknown
Elevation
Unknown
Doppler factor
Unknown
Orbital elements
Apogee altitude
906.546 km
Perigee altitude
720.527 km
Semi-major axis
7,191.674 km
Eccentricity
0.01293
Inclination
99.2766°
RAAN
265.3884°
Arg. of periapsis
203.9519°
True anomaly
278.58806°
Mean anomaly
280.0513°
Eccentric anomaly
279.32008°
Mean motion
3.55876 °/min
Orbital period
101.16 mins
BSTAR
0.00011478
Loading maneuver chart data...
Computing Atmospheric mass density...

Documentation

Showing up to 5 results
|